Погода в Моркиных Горах

Россия / Тверская область     57°32′53″N   36°17′44″E
темп.,
°C
ветер,
м/с
пор.,
м/с
влажн.,
%
обл.,
%
осадки,
мм/ч
давл.,
гПа
погр.,
м
17 апреля, сб
сб1700:00+7всв5137181 0.0 1025542
03:00+5всв4128285 0.1 1026467
06:00+5всв4118284 0.0 1026433
09:00+8всв597085 0.0 1026526
12:00+12всв585712 0.0 1025890
15:00+14всв685026 0.0 10251184
18:00+12всв595113 0.0 10241033
21:00+8св412605 0.0 1025454
18 апреля, вс
вс1800:00+6всв413661 0.0 1025461
03:00+4всв413780 0.0 1026439
06:00+4всв413820 0.0 1026488
09:00+8всв511615 0.0 1025917
12:00+11всв68475 0.0 10251520
15:00+12всв69405 0.0 10251915
18:00+11всв59465 0.0 10251760
21:00+7всв512665 0.0 1026607
19 апреля, пн
пн1900:00+5всв5118315 0.0 1028520
03:00+3всв4108856 0.0 1028410
06:00+2всв4108897 0.0 1028465
09:00+5в4771100 0.0 1028665
12:00+7в5763100 0.0 1028992
15:00+8в5760100 0.0 10281163
18:00+8в4760100 0.0 10281466
21:00+6в3965100 0.0 1028557
20 апреля, вт
вт2000:00+5в41061100 0.0 1027614
03:00+3в4116387 0.0 1027662
06:00+2в4116792 0.0 1026540
09:00+4в595955 0.0 1025753
12:00+6в5861100 0.0 1023956
15:00+3в51495100 1.4 1021770
18:00+7в61473100 1.0 10161273
21:00+6в71680100 1.6 10131142
21 апреля, ср
ср2100:00+4в71795100 3.8 10091182
03:00+4в71796100 7.3 10051171
06:00+5вюв61693100 0.8 1002877
09:00+6вюв61493100 3.4 1000990
12:00+7вюв51193100 1.7 9971208
15:00+6ююв4993100 3.1 9971107
18:00+5ююв51295100 0.2 999629
21:00+4ю61196100 0.6 1002719